This is the latest recevied weather packets stored in our database for station/object Oberstadn. If no packets are shown the sender has not sent any weather packets the latest 1 day(s).
| Time | Temp. | Humidity | Pressure | Rain* | Wind** | Luminosity | Snow |
|---|---|---|---|---|---|---|---|
| 1777975332 | 18.33° C | 62% | 1008 hPa | 0 mm | 2.24 m/s, 203° | - | - |
| 1777973532 | 18.33° C | 64% | 1008.1 hPa | 0 mm | 1.79 m/s, 223° | - | - |
| 1777971732 | 18.33° C | 66% | 1008.1 hPa | 0 mm | 1.34 m/s, 250° | - | - |
| 1777969931 | 17.78° C | 67% | 1008.4 hPa | 0 mm | 1.79 m/s, 248° | - | - |
| 1777968131 | 17.78° C | 65% | 1008.4 hPa | 0 mm | 1.79 m/s, 42° | - | - |
| 1777966330 | 15.56° C | 74% | 1008.7 hPa | 0 mm | 0.89 m/s, 304° | - | - |
| 1777964532 | 15° C | 73% | 1009 hPa | 0 mm | 0.89 m/s, 62° | - | - |
| 1777962731 | 12.78° C | 81% | 1009.2 hPa | 0 mm | 0.89 m/s, 46° | - | - |
| 1777960932 | 8.89° C | 89% | 1009.5 hPa | 0 mm | 0.89 m/s, 129° | - | - |
| 1777959131 | 7.22° C | 90% | 1009.5 hPa | 0 mm | 0.45 m/s, 65° | - | - |
| 1777957331 | 5.56° C | 90% | 1009.6 hPa | 0 mm | 0 m/s | - | - |
| 1777955531 | 5° C | 88% | 1009.7 hPa | 0 mm | 0.45 m/s, 123° | - | - |
| 1777953731 | 5.56° C | 88% | 1009.7 hPa | 0 mm | 0 m/s | - | - |
| 1777951931 | 6.11° C | 86% | 1009.8 hPa | 0 mm | 1.34 m/s, 87° | - | - |
| 1777950133 | 6.67° C | 86% | 1010.1 hPa | 0 mm | 0 m/s | - | - |
| 1777948331 | 7.22° C | 86% | 1010.2 hPa | 0 mm | 1.34 m/s, 90° | - | - |
| 1777946531 | 7.78° C | 86% | 1010.6 hPa | 0 mm | 1.79 m/s, 184° | - | - |
| 1777944731 | 7.78° C | 84% | 1010.8 hPa | 0 mm | 1.79 m/s, 5° | - | - |
| 1777942931 | 8.89° C | 81% | 1011.1 hPa | 0 mm | 1.34 m/s, 203° | - | - |
| 1777941128 | 10° C | 79% | 1011.3 hPa | 0 mm | 0 m/s | - | - |
| 1777939330 | 10.56° C | 78% | 1011.5 hPa | 0 mm | 1.79 m/s, 213° | - | - |
| 1777937529 | 11.67° C | 77% | 1011.7 hPa | 0 mm | 1.34 m/s, 266° | - | - |
* Rain since midnight (hover to see other rain measurements)
** Current wind speed in m/s (hover to see current wind gust speed)